Date String (YYYY-MM-DD hh:mm:ss) UTC,Instrument flags,Ambient pressure (hPa),Sample flow (lpm),Bypass flow (lpm),Sample temperature (°C),Ambient temperature (°C),ASC tube jacket temperature (°C),LED temperature (°C),Box temperature (°C),Sample RH (%),Span deviation,Mass concentration (μg/m³),Mass concentration (μg/m³),Mass concentration (μg/m³)
DateTimeUTC,F1_M11,P_M11,Q1_M11,Q2_M11,T1_M11,T2_M11,T3_M11,T4_M11,T5_M11,U1_M11,ZSPAN_M11,X0_M11,X2_M11,X1_M11
2021-09-07 11:00:00,,0830.1,5.01,0.00,29.7,27.3,00.0,38.9,31.2,08.8,0003.5,0031.10,0021.13,0019.82
2021-09-07 11:01:00,,0830.1,5.01,0.00,29.7,27.6,00.0,38.9,31.3,08.7,0003.4,0031.46,0021.24,0019.89
2021-09-07 11:02:00,,0830.1,4.99,0.00,29.7,27.9,00.0,38.9,31.3,08.7,0004.0,0032.13,0021.25,0019.92
2021-09-07 11:03:00,,0830.1,5.01,0.00,29.7,28.1,00.0,38.9,31.4,08.7,0004.5,0032.54,0021.28,0019.96
2021-09-07 11:04:00,,0830.1,5.00,0.00,29.7,28.3,00.0,38.9,31.4,08.7,0004.2,0031.83,0021.33,0020.04
2021-09-07 11:05:00,,0830.1,5.00,0.00,29.8,28.5,00.0,38.9,31.5,08.7,0003.3,0031.80,0021.38,0020.11
2021-09-07 11:06:00,,0830.1,4.99,0.00,29.8,28.6,00.0,38.9,31.5,08.7,0003.3,0031.80,0021.45,0020.20
2021-09-07 11:07:00,,0830.1,5.00,0.00,29.8,28.7,00.0,38.9,31.6,08.6,0003.5,0031.55,0021.51,0020.23
2021-09-07 11:08:00,,0830.1,5.00,0.00,29.8,28.8,00.0,38.9,31.6,08.6,0003.5,0031.65,0021.51,0020.24
2021-09-07 11:09:00,,0830.1,5.00,0.00,29.9,28.8,00.0,38.9,31.6,08.5,0003.7,0031.40,0021.49,0020.25
2021-09-07 11:10:00,,0830.1,4.99,0.00,29.9,28.9,00.0,38.9,31.7,08.5,0003.3,0031.31,0021.52,0020.26
2021-09-07 11:11:00,,0830.1,5.01,0.00,29.9,29.0,00.0,38.9,31.7,08.5,0002.9,0031.07,0021.53,0020.28
2021-09-07 11:12:00,,0830.1,5.01,0.00,29.9,29.0,00.0,39.0,31.7,08.5,0002.2,0031.51,0021.59,0020.34
2021-09-07 11:13:00,,0830.1,5.00,0.00,30.0,29.1,00.0,39.0,31.7,08.5,0001.6,0031.51,0021.66,0020.37
2021-09-07 11:14:00,,0830.2,5.01,0.00,30.0,29.1,00.0,39.0,31.8,08.5,0001.5,0031.75,0021.67,0020.39
2021-09-07 11:15:00,,0830.2,5.01,0.00,30.0,29.2,00.0,39.0,31.8,08.5,0001.7,0031.80,0021.68,0020.38
2021-09-07 11:16:00,,0830.2,5.00,0.00,30.0,29.2,00.0,39.0,31.8,08.5,0002.1,0032.20,0021.69,0020.39
2021-09-07 11:17:00,,0830.3,4.99,0.00,30.1,29.2,00.0,39.1,31.9,08.5,0001.7,0032.45,0021.73,0020.39
2021-09-07 11:18:00,,0830.3,5.00,0.00,30.1,29.3,00.0,39.1,31.9,08.5,0001.3,0032.54,0021.77,0020.43
2021-09-07 11:19:00,,0830.2,5.00,0.00,30.1,29.3,00.0,39.1,31.9,08.4,0001.1,0033.21,0021.77,0020.44
2021-09-07 11:20:00,,0830.2,4.98,0.00,30.1,28.1,00.0,39.1,31.6,08.4,0001.2,0034.04,0021.83,0020.47
2021-09-07 11:21:00,,0830.2,5.01,0.00,29.9,26.6,00.0,39.1,31.2,08.5,0001.0,0034.44,0021.90,0020.48
2021-09-07 11:22:00,,0830.2,5.00,0.00,29.8,26.6,00.0,39.0,31.2,08.6,0001.0,0034.33,0021.94,0020.49
2021-09-07 11:23:00,,0830.2,5.00,0.00,29.8,26.9,00.0,39.0,31.2,08.6,0001.2,0034.07,0021.92,0020.50
2021-09-07 11:24:00,,0830.2,5.00,0.00,29.7,27.3,00.0,39.0,31.2,08.6,0001.2,0034.18,0021.87,0020.49
2021-09-07 11:25:00,,0830.2,5.00,0.00,29.7,27.7,00.0,39.0,31.3,08.7,0000.9,0033.33,0021.91,0020.50
2021-09-07 11:26:00,,0830.3,5.00,0.00,29.7,27.9,00.0,38.9,31.4,08.7,0001.0,0033.15,0021.90,0020.49
2021-09-07 11:27:00,,0830.3,5.00,0.00,29.8,28.1,00.0,38.9,31.4,08.7,0000.6,0033.11,0021.89,0020.49
2021-09-07 11:28:00,,0830.3,5.00,0.00,29.8,28.3,00.0,38.9,31.5,08.7,0000.3,0034.01,0021.90,0020.50
2021-09-07 11:29:00,,0830.2,5.01,0.00,29.8,28.4,00.0,38.9,31.5,08.6,0000.4,0033.95,0021.87,0020.45
2021-09-07 11:30:00,,0830.3,4.98,0.00,29.8,28.6,00.0,38.9,31.5,08.6,0000.9,0033.05,0021.86,0020.45
2021-09-07 11:31:00,,0830.2,5.01,0.00,29.8,28.6,00.0,38.9,31.6,08.6,0000.4,0032.38,0021.82,0020.44
2021-09-07 11:32:00,,0830.2,4.99,0.00,29.9,28.7,00.0,38.9,31.6,08.6,0000.1,0032.48,0021.78,0020.43
2021-09-07 11:33:00,,0830.3,5.00,0.00,29.9,28.8,00.0,38.9,31.6,08.6,-000.1,0032.00,0021.71,0020.41
2021-09-07 11:34:00,,0830.3,4.99,0.00,29.9,28.9,00.0,39.0,31.7,08.5,-000.4,0031.80,0021.69,0020.39
2021-09-07 11:35:00,,0830.2,5.01,0.00,29.9,28.9,00.0,39.0,31.7,08.5,-000.4,0031.32,0021.77,0020.43
2021-09-07 11:36:00,,0830.3,5.00,0.00,30.0,29.0,00.0,39.0,31.7,08.5,-000.6,0031.06,0021.80,0020.47
2021-09-07 11:37:00,,0830.3,5.00,0.00,30.0,29.0,00.0,39.0,31.7,08.6,-000.5,0031.54,0021.87,0020.53
2021-09-07 11:38:00,,0830.3,5.01,0.00,30.0,29.0,00.0,39.0,31.8,08.6,-000.3,0031.77,0021.94,0020.56
2021-09-07 11:39:00,,0830.3,5.00,0.00,30.0,29.1,00.0,39.0,31.7,08.6,0000.4,0030.69,0021.97,0020.60
2021-09-07 11:40:00,,0830.3,5.01,0.00,30.0,29.1,00.0,39.1,31.7,08.5,0000.0,0030.76,0022.05,0020.68
2021-09-07 11:41:00,,0830.4,5.00,0.00,30.1,29.1,00.0,39.1,31.8,08.5,-000.3,0030.87,0022.16,0020.77
2021-09-07 11:42:00,,0830.4,4.99,0.00,30.1,29.1,00.0,39.1,31.9,08.5,-000.0,0030.94,0022.26,0020.87
2021-09-07 11:43:00,,0830.4,5.00,0.00,30.1,29.2,00.0,39.1,31.9,08.4,0000.4,0030.56,0022.33,0020.99
2021-09-07 11:44:00,,0830.4,5.00,0.00,30.1,29.2,00.0,39.1,31.9,08.4,0000.5,0030.67,0022.45,0021.11
2021-09-07 11:45:00,,0830.4,5.01,0.00,30.1,28.1,00.0,39.1,31.7,08.4,0000.5,0030.62,0022.61,0021.26
2021-09-07 11:46:00,,0830.4,4.99,0.00,29.9,26.3,00.0,39.1,31.2,08.5,0001.1,0030.65,0022.72,0021.41
2021-09-07 11:47:00,,0830.4,5.00,0.00,29.8,26.3,00.0,39.1,31.2,08.6,0001.6,0030.76,0022.85,0021.54
2021-09-07 11:48:00,,0830.4,5.01,0.00,29.8,26.7,00.0,39.0,31.2,08.6,0001.7,0030.66,0022.93,0021.64
2021-09-07 11:49:00,,0830.4,4.99,0.00,29.7,27.1,00.0,39.0,31.2,08.7,0001.7,0030.45,0023.00,0021.77
2021-09-07 11:50:00,,0830.4,4.99,0.00,29.7,27.4,00.0,38.9,31.2,08.7,0001.1,0030.69,0023.09,0021.89
2021-09-07 11:51:00,,0830.4,5.02,0.00,29.7,27.7,00.0,38.9,31.3,08.7,0001.8,0030.81,0023.17,0021.99
2021-09-07 11:52:00,,0830.4,4.99,0.00,29.7,27.9,00.0,38.9,31.3,08.7,0001.9,0030.99,0023.25,0022.05
2021-09-07 11:53:00,,0830.4,4.99,0.00,29.7,28.1,00.0,38.9,31.4,08.6,0002.3,0031.02,0023.37,0022.14
2021-09-07 11:54:00,,0830.4,5.01,0.00,29.7,28.3,00.0,38.9,31.4,08.6,0002.5,0031.70,0023.43,0022.22
2021-09-07 11:55:00,,0830.4,4.99,0.00,29.7,28.4,00.0,38.9,31.4,08.5,0002.3,0032.68,0023.49,0022.27
2021-09-07 11:56:00,,0830.4,5.00,0.00,29.8,28.5,00.0,38.9,31.5,08.5,0002.3,0033.34,0023.50,0022.29
2021-09-07 11:57:00,,0830.4,5.01,0.00,29.8,28.6,00.0,38.9,31.5,08.6,0002.3,0033.39,0023.49,0022.28
2021-09-07 11:58:00,,0830.5,4.99,0.00,29.8,28.6,00.0,38.9,31.5,08.5,0002.0,0033.30,0023.46,0022.25
2021-09-07 11:59:00,,0830.5,5.01,0.00,29.8,28.7,00.0,38.9,31.6,08.7,0001.6,0033.15,0023.47,0022.26
